Orbital Elements at Epoch 2458993.5 (2020-May-24.0) TDB
Reference: JPL 15 (heliocentric ecliptic J2000)
Element | Value | Uncertainty (1-sigma) | Units |
e | .9933046236239367 | 1.2858e-05 | |
a | 796.2543632430663 | 1.5274 | au |
q | 5.33122265299497 | 3.9817e-05 | au |
i | 93.94658632642414 | 0.00010649 | deg |
node | 321.8861541544669 | 1.5443e-05 | deg |
peri | 227.9979197994678 | 0.00073171 | deg |
M | 359.9763489236759 | 6.8051e-05 | deg |
tp | 2459532.668577073429 (2021-Nov-14.16857707) | 0.0039636 | TDB |
period | 8206843.743047078 22469.11 | 23614 64.65 | d yr |
n | 4.386582848065015E-5 | 1.2622e-07 | deg/d |
Q | 1587.177503833138 | 3.0446 | au |
|
| | Orbit Determination Parameters
Additional Information
|